User: anonymous   Login
Location: Karlovy Vary
(50.2170°N, 12.9000°E)
Time: 06:08:43
(UTC+01:00)
Language:

ISS - Orbit

View from above orbital plane
View from above orbital plane
View from above satellite
View from above satellite

Ground track
Ground track

The orbit data is extracted from the following two-line orbital elements,

1 25544U 98067A   14298.82108381  .00020187  00000-0  34985-3 0  3023
2 25544 051.6453 172.0332 0002390 311.5500 143.2127 15.50873035911595
Epoch (UTC): 25 October 2014 19:42:21
Eccentricity: 0.0002390
inclination: 51.6453°
perigee height: 412 km
apogee height: 416 km
right ascension of ascending node: 172.0332°
argument of perigee: 311.5500°
revolutions per day: 15.50873035
mean anomaly at epoch: 143.2127°
orbit number at epoch: 91159

The dashed part of the orbit path shows where the satellite is in the earth's shadow,  

DLR